• în Republica Moldova
  • Lista ţărilor
  • Pe 7 zile
  • Temperatura apei
  • Hartă satelitară
  • Meteo pe hartă
  • Widget-uri
  • user-avatar
    Intrare

    Meteo pe oră la Shkoder

    Astăzi, 22 Iulie, Sâmbătă

    Timp Temperatura Precipitaţii Vânt Presiune Umiditate
    00:00 +25°C° 0,1 mm 1 m/s 739 mmHg 55%
    01:00 +25°C° 0 mm 2 m/s 739 mmHg 53%
    02:00 +25°C° 0 mm 1 m/s 739 mmHg 53%
    03:00 +24°C° 0 mm 1 m/s 739 mmHg 53%
    04:00 +24°C° 0 mm 1 m/s 739 mmHg 54%
    05:00 +26°C° 0 mm 1 m/s 740 mmHg 51%
    06:00 +28°C° 0 mm 1 m/s 740 mmHg 47%
    07:00 +30°C° 0 mm 1 m/s 740 mmHg 44%
    08:00 +32°C° 0 mm 1 m/s 740 mmHg 40%
    09:00 +35°C° 0 mm 2 m/s 740 mmHg 37%
    10:00 +36°C° 0 mm 2 m/s 740 mmHg 33%
    11:00 +37°C° 0 mm 2 m/s 740 mmHg 32%
    12:00 +37°C° 0 mm 3 m/s 740 mmHg 31%
    13:00 +38°C° 0 mm 3 m/s 740 mmHg 30%
    14:00 +37°C° 0 mm 3 m/s 740 mmHg 31%
    15:00 +37°C° 0 mm 3 m/s 740 mmHg 32%
    16:00 +37°C° 0 mm 2 m/s 740 mmHg 33%
    17:00 +34°C° 0 mm 2 m/s 740 mmHg 39%
    18:00 +31°C° 0 mm 1 m/s 740 mmHg 45%
    19:00 +28°C° 0 mm 1 m/s 740 mmHg 50%
    20:00 +27°C° 0 mm 1 m/s 740 mmHg 51%
    21:00 +26°C° 0 mm 1 m/s 740 mmHg 52%
    22:00 +25°C° 0 mm 1 m/s 740 mmHg 53%
    23:00 +25°C° 0 mm 1 m/s 740 mmHg 51%

    Mâine, 23 Iulie, Duminică

    Timp Temperatura Precipitaţii Vânt Presiune Umiditate
    00:00 +25°C° 0 mm 2 m/s 740 mmHg 49%
    01:00 +25°C° 0 mm 2 m/s 740 mmHg 48%
    02:00 +24°C° 0 mm 2 m/s 740 mmHg 47%
    03:00 +24°C° 0 mm 2 m/s 740 mmHg 46%
    04:00 +24°C° 0 mm 2 m/s 740 mmHg 46%
    05:00 +26°C° 0 mm 2 m/s 740 mmHg 43%
    06:00 +29°C° 0 mm 1 m/s 740 mmHg 41%
    07:00 +31°C° 0 mm 1 m/s 740 mmHg 39%
    08:00 +32°C° 0 mm 1 m/s 740 mmHg 36%
    09:00 +35°C° 0 mm 2 m/s 740 mmHg 33%
    10:00 +36°C° 0 mm 2 m/s 740 mmHg 30%
    11:00 +37°C° 0 mm 2 m/s 739 mmHg 30%
    12:00 +37°C° 0 mm 3 m/s 739 mmHg 31%
    13:00 +37°C° 0 mm 3 m/s 739 mmHg 31%
    14:00 +37°C° 0 mm 3 m/s 739 mmHg 32%
    15:00 +36°C° 0 mm 2 m/s 738 mmHg 33%
    16:00 +36°C° 0 mm 2 m/s 738 mmHg 34%
    17:00 +34°C° 0 mm 2 m/s 738 mmHg 40%
    18:00 +30°C° 0 mm 2 m/s 738 mmHg 46%
    19:00 +28°C° 0 mm 1 m/s 738 mmHg 52%
    20:00 +27°C° 0 mm 1 m/s 738 mmHg 53%
    21:00 +26°C° 0 mm 1 m/s 738 mmHg 55%
    22:00 +25°C° 0 mm 1 m/s 739 mmHg 57%
    23:00 +25°C° 0 mm 1 m/s 738 mmHg 57%

    Poimâine, 24 Iulie, Luni

    Timp Temperatura Precipitaţii Vânt Presiune Umiditate
    00:00 +25°C° 0 mm 1 m/s 738 mmHg 58%
    01:00 +24°C° 0 mm 1 m/s 738 mmHg 58%
    02:00 +24°C° 0 mm 1 m/s 738 mmHg 58%
    03:00 +24°C° 0 mm 1 m/s 737 mmHg 58%
    04:00 +24°C° 0 mm 1 m/s 737 mmHg 59%
    05:00 +26°C° 0 mm 1 m/s 737 mmHg 54%
    06:00 +28°C° 0 mm 1 m/s 737 mmHg 49%
    07:00 +28°C° 0 mm 0 m/s 737 mmHg 45%
    08:00 +31°C° 0 mm 1 m/s 737 mmHg 40%
    09:00 +33°C° 0 mm 1 m/s 736 mmHg 35%
    10:00 +36°C° 0 mm 2 m/s 736 mmHg 31%
    11:00 +36°C° 0 mm 2 m/s 736 mmHg 29%
    12:00 +37°C° 0 mm 3 m/s 735 mmHg 28%
    13:00 +38°C° 0 mm 3 m/s 735 mmHg 27%
    14:00 +37°C° 0 mm 3 m/s 734 mmHg 28%
    15:00 +37°C° 0 mm 3 m/s 734 mmHg 30%
    16:00 +36°C° 0 mm 3 m/s 733 mmHg 32%
    17:00 +34°C° 0 mm 2 m/s 733 mmHg 39%
    18:00 +30°C° 0 mm 2 m/s 733 mmHg 45%
    19:00 +28°C° 0 mm 1 m/s 733 mmHg 51%
    20:00 +27°C° 0 mm 2 m/s 732 mmHg 52%
    21:00 +26°C° 0 mm 2 m/s 732 mmHg 53%
    22:00 +25°C° 0 mm 2 m/s 732 mmHg 54%
    23:00 +25°C° 0 mm 2 m/s 732 mmHg 55%

    25 Iulie, Marţi

    Timp Temperatura Precipitaţii Vânt Presiune Umiditate
    00:00 +24°C° 0 mm 2 m/s 731 mmHg 55%
    01:00 +24°C° 0 mm 2 m/s 731 mmHg 55%
    02:00 +23°C° 0,1 mm 2 m/s 731 mmHg 58%
    03:00 +23°C° 0,1 mm 2 m/s 731 mmHg 60%
    04:00 +21°C° 0,1 mm 3 m/s 731 mmHg 63%
    05:00 +24°C° 0,1 mm 3 m/s 730 mmHg 65%
    06:00 +25°C° 0,1 mm 3 m/s 730 mmHg 67%
    07:00 +26°C° 0,1 mm 4 m/s 730 mmHg 68%
    08:00 +27°C° 1,1 mm 4 m/s 730 mmHg 68%
    09:00 +27°C° 1,1 mm 5 m/s 730 mmHg 67%
    10:00 +27°C° 1,1 mm 5 m/s 730 mmHg 67%
    11:00 +27°C° 1 mm 5 m/s 731 mmHg 66%
    12:00 +27°C° 1 mm 4 m/s 731 mmHg 64%
    13:00 +28°C° 1 mm 4 m/s 731 mmHg 63%
    14:00 +27°C° 0,7 mm 3 m/s 731 mmHg 62%
    15:00 +27°C° 0,7 mm 3 m/s 731 mmHg 62%
    16:00 +27°C° 0,7 mm 2 m/s 732 mmHg 61%
    17:00 +26°C° 0 mm 2 m/s 732 mmHg 65%
    18:00 +25°C° 0 mm 2 m/s 732 mmHg 69%
    19:00 +23°C° 0 mm 1 m/s 732 mmHg 73%
    20:00 +22°C° 0 mm 1 m/s 732 mmHg 76%
    21:00 +21°C° 0 mm 1 m/s 733 mmHg 79%
    22:00 +21°C° 0 mm 1 m/s 733 mmHg 82%
    23:00 +20°C° 0 mm 1 m/s 733 mmHg 81%

    26 Iulie, Miercuri

    Timp Temperatura Precipitaţii Vânt Presiune Umiditate
    00:00 +19°C° 0 mm 2 m/s 733 mmHg 81%
    01:00 +19°C° 0 mm 2 m/s 733 mmHg 80%
    02:00 +19°C° 0 mm 2 m/s 733 mmHg 80%
    03:00 +18°C° 0 mm 2 m/s 733 mmHg 80%
    04:00 +18°C° 0 mm 2 m/s 733 mmHg 80%
    05:00 +20°C° 0 mm 2 m/s 733 mmHg 74%
    06:00 +23°C° 0 mm 2 m/s 733 mmHg 67%
    07:00 +25°C° 0 mm 2 m/s 734 mmHg 61%
    08:00 +26°C° 0 mm 2 m/s 734 mmHg 56%
    09:00 +28°C° 0 mm 1 m/s 733 mmHg 51%
    10:00 +30°C° 0 mm 1 m/s 733 mmHg 45%
    11:00 +30°C° 0,3 mm 2 m/s 733 mmHg 45%
    12:00 +30°C° 0,3 mm 2 m/s 733 mmHg 45%
    13:00 +30°C° 0,3 mm 3 m/s 733 mmHg 45%
    14:00 +30°C° 0,3 mm 3 m/s 733 mmHg 47%
    15:00 +30°C° 0,3 mm 3 m/s 732 mmHg 48%
    16:00 +30°C° 0,3 mm 3 m/s 732 mmHg 50%
    17:00 +28°C° 0,3 mm 2 m/s 732 mmHg 56%
    18:00 +26°C° 0,3 mm 2 m/s 732 mmHg 63%
    19:00 +24°C° 0,3 mm 1 m/s 732 mmHg 69%
    20:00 +23°C° 0,2 mm 1 m/s 733 mmHg 72%
    21:00 +22°C° 0,2 mm 1 m/s 733 mmHg 75%
    22:00 +20°C° 0,2 mm 2 m/s 733 mmHg 79%
    23:00 +20°C° 0,4 mm 2 m/s 733 mmHg 80%

    27 Iulie, Joi

    Timp Temperatura Precipitaţii Vânt Presiune Umiditate
    00:00 +20°C° 0,4 mm 2 m/s 733 mmHg 82%
    01:00 +19°C° 0,4 mm 2 m/s 733 mmHg 83%
    02:00 +19°C° 0,8 mm 2 m/s 733 mmHg 84%
    03:00 +19°C° 0,8 mm 2 m/s 733 mmHg 85%
    04:00 +19°C° 0,8 mm 2 m/s 733 mmHg 86%
    05:00 +20°C° 1,3 mm 2 m/s 733 mmHg 82%
    06:00 +21°C° 1,3 mm 2 m/s 733 mmHg 79%
    07:00 +23°C° 1,3 mm 2 m/s 733 mmHg 75%
    08:00 +25°C° 0,9 mm 2 m/s 734 mmHg 70%
    09:00 +26°C° 0,9 mm 3 m/s 734 mmHg 64%
    10:00 +27°C° 0,9 mm 3 m/s 734 mmHg 59%
    11:00 +27°C° 1 mm 3 m/s 734 mmHg 58%
    12:00 +27°C° 1 mm 3 m/s 734 mmHg 58%
    13:00 +28°C° 1 mm 3 m/s 734 mmHg 57%
    14:00 +28°C° 0,5 mm 3 m/s 734 mmHg 58%
    15:00 +27°C° 0,5 mm 3 m/s 734 mmHg 58%
    16:00 +27°C° 0,5 mm 3 m/s 734 mmHg 58%
    17:00 +25°C° 0,2 mm 2 m/s 734 mmHg 65%
    18:00 +24°C° 0,2 mm 2 m/s 734 mmHg 72%
    19:00 +22°C° 0,2 mm 1 m/s 735 mmHg 78%
    20:00 +21°C° 0 mm 1 m/s 735 mmHg 81%
    21:00 +21°C° 0 mm 1 m/s 735 mmHg 84%
    22:00 +20°C° 0 mm 1 m/s 736 mmHg 87%
    23:00 +20°C° 0 mm 1 m/s 736 mmHg 87%
    Arată mai mult